STARLINK-32361, 61933

Orbit data source: Space-Track

STARLINK-32361, 61933 is a payload satellite owned by SpaceX/Seattle (US) in LEO that was launched on Mon, 11 Nov 2024 UTC via an FALCON 9 launch vehicle from the Air Force Eastern Test Range (AFETR). Payload-class satellites include a variety of spacecraft equipped with specific instruments for various scientific and technological missions. These include communications satellites like Starlink; space stations such as the ISS; scientific satellites like the Hubble; Earth observation satellites from companies like Planet Labs, Umbra, and HawkEye 360; GPS; miniature CubeSats for education and research; and military/defense satellites.

Loading next visibility...
Identifier
61933, 2024-207X
Orbit
LEO
Country
Flag of USUS
Related business
Manufacturer
SpaceX/Seattle
Mission
Operational Commercial Communications
Bus & Motor
STARLINK V2M, Unknown motor
Mass
730 kg wet, ~700 kg dry
Launch date (UTC)
2024-11-11 (1 year ago)
Launch vehicle
FALCON 9
Launch site
Air Force Eastern Test Range (AFETR)
Object type
Payload
Rocket body
Debris
Shape & HBR
Box + 2 Pan, 17.7 m
Radar Cross Section
33.884 m², Large (>1 m²)

Expand to show TLE details & history
Last TLE update: 2 days ago

TLE from 2 days ago
0 STARLINK-32361
1 61933U 24207X   25312.82632860  .00039989  00000-0  14530-2 0  9998
2 61933  42.9941 244.6291 0005317 290.0018  70.0261 15.27611695 56232
Epoch: 2025-11-08T19:49Z
TLE epoch observation values (Epoch: 2025-11-08T19:49:54.791Z)
Latitude
0.00001°
Longitude
-101.09955°
Altitude
481.485 km
Speed
7.627 km/s
True Right ascension
16h 18m 30s
True Declination
0° 00' 00"
Sunlit
Object was in daylight at epoch
Visualization orbit readout
Latitude
Unknown
Longitude
Unknown
Altitude
Unknown
Speed
Unknown
Apparent Right ascension
Unknown
Apparent Declination
Unknown
Sunlit
N/A
Visualization observer readout
Local Sidereal Time
04:45:29
Azimuth
Unknown
Elevation
Unknown
Doppler factor
Unknown
Orbital elements
Apogee altitude
488.549 km
Perigee altitude
481.251 km
Semi-major axis
6,863.037 km
Eccentricity
0.00053
Inclination
42.9941°
RAAN
244.6291°
Arg. of periapsis
290.0018°
True anomaly
70.08338°
Mean anomaly
70.0261°
Eccentric anomaly
70.05474°
Mean motion
3.81741 °/min
Orbital period
94.3 mins
BSTAR
0.001453
Loading maneuver chart data...
Computing Atmospheric mass density...
Loading historical data...
Loading historical data...
Loading historical data...
Loading historical data...
Loading historical data...
Loading historical data...
Loading historical data...

Documentation

Showing up to 5 results
|